Indianapolis, IN

5:07 AM EDT on April 24, 2017 (GMT -0400)
Indianapolis International

Weather History for KIND - July, 2014

Change the Weather History Date:

Saturday, July 19, 2014

  Actual Average Record
Temperature  
Mean Temperature 68 °F 75 °F  
Max Temperature 77 °F 85 °F 98 °F (1930)
Min Temperature 58 °F 66 °F 50 °F (1984)
Degree Days  
Heating Degree Days 0 0  
Month to date heating degree days 3 0  
Since 1 June heating degree days 5 16  
Since 1 July heating degree days 3 0  
Cooling Degree Days 3 10  
Month to date cooling degree days 109 205  
Year to date cooling degree days 451 515  
Since 1 June cooling degree days 347 431  
Growing Degree Days 17 (Base 50)    
Moisture  
Dew Point 57 °F    
Average Humidity 74    
Maximum Humidity 93    
Minimum Humidity 54    
Precipitation  
Precipitation 0.00 in 0.14 in 1.31 in (1880)
Month to date precipitation 0.94 2.98  
Year to date precipitation 25.41 24.63  
Snow  
Snow 0.00 in 0.00 in 0.00 in ()
Month to date snowfall 0.0 0.0  
Since 1 June snowfall 0.0 0.0  
Since 1 July snowfall 0.0 0.0  
Snow Depth 0.00 in    
Sea Level Pressure  
Sea Level Pressure 30.06 in    
Wind  
Wind Speed 5 mph (NNE)    
Max Wind Speed 13 mph    
Max Gust Speed 16 mph    
Visibility 10 miles    
Events      
T = Trace of Precipitation, MM = Missing Value Source: NWS Daily Summary

Daily Weather History Graph

Daily Weather History Graph

Search for Another Location

Airport or City:

Trip Planner

Search our weather history database for the weather conditions in past years. The results will help you decide how hot, cold, wet, or windy it might be!

Date:

Astronomy

Jul. 19, 2014 Rise Set
Actual Time 6:32 AM EDT 9:09 PM EDT
Civil Twilight 6:01 AM EDT 9:40 PM EDT
Nautical Twilight 5:22 AM EDT 10:19 PM EDT
Astronomical Twilight 4:38 AM EDT 11:03 PM EDT
Moon 1:07 AM EDT (7/19) 2:50 PM EDT (7/19)
Length of Visible Light 15h 39m
Length of Day
14h 36m
Last Quarter, 44% of the Moon is Illuminated
Jul 19
Last Quarter
Jul 26
New
Aug 3
First Quarter
Aug 10
Full
Aug 17
Last Quarter

Hourly Weather History & Observations

Time (EDT) Temp. Dew Point Humidity Pressure Visibility Wind Dir Wind Speed Gust Speed Precip Events Conditions
12:54 AM 62.1 °F 55.9 °F 80% 30.09 in 10.0 mi East 3.5 mph - N/A   Mostly Cloudy
1:54 AM 62.1 °F 55.9 °F 80% 30.08 in 10.0 mi Calm Calm - N/A   Partly Cloudy
2:54 AM 61.0 °F 55.0 °F 81% 30.07 in 10.0 mi Calm Calm - N/A   Partly Cloudy
3:51 AM 60.8 °F 55.4 °F 82% 30.08 in 8.0 mi Calm Calm - N/A   Overcast
3:54 AM 60.1 °F 55.9 °F 86% 30.06 in 8.0 mi Calm Calm - N/A   Overcast
4:31 AM 59.0 °F 55.0 °F 87% 30.08 in 8.0 mi North 4.6 mph - N/A   Scattered Clouds
4:54 AM 59.0 °F 55.0 °F 87% 30.06 in 9.0 mi North 3.5 mph - N/A   Scattered Clouds
5:54 AM 57.9 °F 55.0 °F 90% 30.07 in 8.0 mi NNE 4.6 mph - N/A   Scattered Clouds
6:54 AM 59.0 °F 55.9 °F 90% 30.07 in 7.0 mi NNE 4.6 mph - N/A   Mostly Cloudy
7:54 AM 61.0 °F 57.0 °F 87% 30.08 in 8.0 mi NNE 5.8 mph - N/A   Overcast
8:08 AM 62.1 °F 57.0 °F 84% 30.09 in 10.0 mi NNE 5.8 mph - N/A   Overcast
8:54 AM 63.0 °F 57.9 °F 84% 30.09 in 10.0 mi NNE 6.9 mph - N/A   Overcast
9:35 AM 64.0 °F 57.9 °F 80% 30.10 in 10.0 mi NE 6.9 mph - N/A   Overcast
9:54 AM 64.9 °F 57.9 °F 78% 30.09 in 10.0 mi NNE 10.4 mph - N/A   Overcast
10:07 AM 64.4 °F 57.2 °F 77% 30.09 in 10.0 mi ENE 11.5 mph - N/A   Overcast
10:54 AM 66.9 °F 59.0 °F 76% 30.08 in 10.0 mi NNE 11.5 mph - N/A   Overcast
11:54 AM 69.1 °F 57.9 °F 68% 30.08 in 10.0 mi NE 9.2 mph - N/A   Overcast
12:40 PM 70.0 °F 59.0 °F 68% 30.08 in 10.0 mi NNE 9.2 mph - N/A   Overcast
12:54 PM 69.1 °F 57.9 °F 68% 30.07 in 10.0 mi NNE 4.6 mph - N/A   Overcast
1:54 PM 69.1 °F 57.9 °F 68% 30.06 in 10.0 mi NE 4.6 mph - N/A   Overcast
2:54 PM 71.1 °F 59.0 °F 66% 30.05 in 10.0 mi Calm Calm - N/A   Overcast
3:54 PM 73.0 °F 57.9 °F 59% 30.04 in 10.0 mi NNE 3.5 mph - N/A   Overcast
4:54 PM 75.9 °F 57.0 °F 52% 30.03 in 10.0 mi Variable 3.5 mph - N/A   Overcast
5:54 PM 75.0 °F 59.0 °F 57% 30.02 in 10.0 mi Variable 4.6 mph - N/A   Overcast
6:54 PM 73.0 °F 57.9 °F 59% 30.01 in 10.0 mi South 5.8 mph - N/A   Overcast
7:54 PM 71.1 °F 59.0 °F 66% 30.02 in 10.0 mi SW 4.6 mph - N/A   Overcast
8:54 PM 70.0 °F 57.9 °F 65% 30.01 in 10.0 mi WSW 3.5 mph - N/A   Mostly Cloudy
9:54 PM 68.0 °F 59.0 °F 73% 30.03 in 10.0 mi West 5.8 mph - N/A   Mostly Cloudy
10:54 PM 66.2 °F 60.8 °F 83% 30.04 in 10.0 mi North 6.9 mph - N/A   Mostly Cloudy
11:54 PM 66.0 °F 60.1 °F 81% 30.04 in 10.0 mi North 5.8 mph - N/A   Mostly Cloudy